| time (UTC) | temp F | wind direction | speed MPH | gust MPH | rain 1hr in | rain 24hr in | rain mn in | humidity % | barometer mb |
| 20260507124017 | 81 | 0 | 1.0 | 5.0 | 0.00 | 0.00 | 0.00 | 71 | 988.6 |
| 20260507123017 | 80 | 315 | 1.0 | 6.0 | 0.00 | 0.00 | 0.00 | 72 | 988.6 |
| 20260507122017 | 80 | 315 | 1.0 | 7.0 | 0.00 | 0.00 | 0.00 | 74 | 988.6 |
| 20260507121037 | 79 | 0.0 | 7.0 | 0.00 | 0.00 | 0.00 | 76 | 988.4 | |
| 20260507120017 | 78 | 293 | 1.0 | 4.0 | 0.00 | 0.00 | 0.00 | 79 | 988.4 |
| 20260507115017 | 77 | 0.0 | 3.0 | 0.00 | 0.00 | 0.00 | 81 | 988.0 | |
| 20260507114017 | 76 | 293 | 2.0 | 10.0 | 0.00 | 0.00 | 0.00 | 82 | 988.0 |
| 20260507113037 | 76 | 293 | 1.0 | 9.0 | 0.00 | 0.00 | 0.00 | 84 | 988.0 |
| 20260507112017 | 75 | 293 | 1.0 | 7.0 | 0.00 | 0.00 | 0.00 | 86 | 987.9 |
| 20260507111017 | 75 | 0.0 | 2.0 | 0.00 | 0.00 | 0.00 | 87 | 987.6 | |
| 20260507110016 | 74 | 0.0 | 0.0 | 0.00 | 0.00 | 0.00 | 87 | 987.6 | |
| 20260507105016 | 74 | 0.0 | 1.0 | 0.00 | 0.00 | 0.00 | 87 | 987.5 | |
| 20260507104016 | 74 | 0.0 | 2.0 | 0.00 | 0.00 | 0.00 | 87 | 987.4 | |
| 20260507103016 | 74 | 0.0 | 5.0 | 0.00 | 0.00 | 0.00 | 87 | 987.4 | |
| 20260507102017 | 74 | 0.0 | 4.0 | 0.00 | 0.00 | 0.00 | 87 | 987.1 | |
| 20260507101016 | 74 | 0.0 | 4.0 | 0.00 | 0.00 | 0.00 | 87 | 987.0 | |
| 20260507100016 | 73 | 0.0 | 1.0 | 0.00 | 0.00 | 0.00 | 87 | 987.0 | |
| 20260507095016 | 73 | 0.0 | 0.0 | 0.00 | 0.00 | 0.00 | 87 | 987.0 | |
| 20260507094016 | 74 | 0.0 | 0.0 | 0.00 | 0.00 | 0.00 | 87 | 986.9 | |
| 20260507093016 | 74 | 0.0 | 3.0 | 0.00 | 0.00 | 0.00 | 87 | 986.9 | |
| 20260507092016 | 74 | 0.0 | 3.0 | 0.00 | 0.00 | 0.00 | 87 | 986.9 | |
| 20260507091016 | 74 | 0.0 | 0.0 | 0.00 | 0.00 | 0.00 | 87 | 986.9 | |
| 20260507090056 | 74 | 0.0 | 1.0 | 0.00 | 0.00 | 0.00 | 87 | 986.9 | |
| 20260507085016 | 74 | 0.0 | 2.0 | 0.00 | 0.00 | 0.00 | 87 | 986.6 | |
| 20260507084016 | 74 | 0.0 | 7.0 | 0.00 | 0.00 | 0.00 | 87 | 986.8 | |
| 20260507083016 | 74 | 0.0 | 0.0 | 0.00 | 0.00 | 0.00 | 86 | 986.8 | |
| 20260507082016 | 74 | 0.0 | 3.0 | 0.00 | 0.00 | 0.00 | 86 | 986.9 | |
| 20260507081016 | 74 | 0.0 | 0.0 | 0.00 | 0.00 | 0.00 | 86 | 986.9 | |
| 20260507080016 | 74 | 0.0 | 1.0 | 0.00 | 0.00 | 0.00 | 86 | 986.9 | |
| 20260507075036 | 74 | 0.0 | 2.0 | 0.00 | 0.00 | 0.00 | 85 | 987.0 | |
| 20260507074016 | 74 | 0.0 | 0.0 | 0.00 | 0.00 | 0.00 | 85 | 987.0 | |
| 20260507073016 | 74 | 0.0 | 0.0 | 0.00 | 0.00 | 0.00 | 85 | 987.0 | |
| 20260507072036 | 74 | 0.0 | 0.0 | 0.00 | 0.00 | 0.00 | 85 | 987.2 | |
| 20260507071016 | 74 | 0.0 | 0.0 | 0.00 | 0.00 | 0.00 | 84 | 987.4 | |
| 20260507070016 | 74 | 0.0 | 0.0 | 0.00 | 0.00 | 0.00 | 84 | 987.4 | |
| 20260507065016 | 75 | 0.0 | 0.0 | 0.00 | 0.00 | 0.00 | 84 | 987.5 | |
| 20260507064016 | 75 | 0.0 | 0.0 | 0.00 | 0.00 | 0.00 | 83 | 987.5 | |
| 20260507063036 | 75 | 0.0 | 4.0 | 0.00 | 0.00 | 0.00 | 83 | 987.5 | |
| 20260507062016 | 75 | 0.0 | 3.0 | 0.00 | 0.00 | 0.00 | 83 | 987.6 | |
| 20260507061016 | 75 | 0.0 | 4.0 | 0.00 | 0.00 | 0.00 | 83 | 987.8 | |
| 20260507060016 | 75 | 0.0 | 0.0 | 0.00 | 0.00 | 0.00 | 82 | 987.8 | |
| 20260507055015 | 75 | 0.0 | 4.0 | 0.00 | 0.00 | 0.00 | 82 | 988.0 | |
| 20260507054016 | 75 | 0.0 | 1.0 | 0.00 | 0.00 | 0.00 | 81 | 988.1 | |
| 20260507053016 | 75 | 0.0 | 0.0 | 0.00 | 0.00 | 0.00 | 81 | 988.1 | |
| 20260507052018 | 75 | 0.0 | 0.0 | 0.00 | 0.00 | 0.00 | 81 | 988.2 | |
| 20260507051018 | 76 | 0.0 | 5.0 | 0.00 | 0.00 | 0.00 | 80 | 988.4 | |
| 20260507050037 | 76 | 0.0 | 1.0 | 0.00 | 0.00 | 0.00 | 80 | 988.4 | |
| 20260507045018 | 76 | 0.0 | 0.0 | 0.00 | 0.00 | 0.00 | 79 | 988.6 | |
| 20260507044017 | 76 | 0.0 | 0.0 | 0.00 | 0.00 | 0.00 | 79 | 988.6 | |
| 20260507043017 | 76 | 0.0 | 5.0 | 0.00 | 0.00 | 0.00 | 78 | 988.6 | |
| 20260507042037 | 76 | 293 | 1.0 | 4.0 | 0.00 | 0.00 | 0.00 | 77 | 988.7 |
| 20260507041017 | 76 | 0.0 | 1.0 | 0.00 | 0.00 | 0.00 | 77 | 988.9 | |
| 20260507040017 | 77 | 0.0 | 6.0 | 0.00 | 0.00 | 0.00 | 76 | 988.9 | |
| 20260507035016 | 77 | 0.0 | 4.0 | 0.00 | 0.00 | 0.00 | 75 | 988.8 | |
| 20260507034017 | 77 | 0.0 | 1.0 | 0.00 | 0.00 | 0.00 | 74 | 989.1 | |
| 20260507033016 | 77 | 0.0 | 4.0 | 0.00 | 0.00 | 0.00 | 74 | 989.1 | |
| 20260507032016 | 77 | 0.0 | 4.0 | 0.00 | 0.00 | 0.00 | 74 | 989.1 | |
| 20260507031016 | 77 | 0.0 | 3.0 | 0.00 | 0.00 | 0.00 | 73 | 989.1 | |
| 20260507030016 | 78 | 0.0 | 4.0 | 0.00 | 0.00 | 0.00 | 72 | 989.1 | |
| 20260507025016 | 78 | 0.0 | 5.0 | 0.00 | 0.00 | 0.00 | 72 | 989.1 | |
| 20260507024036 | 78 | 0.0 | 5.0 | 0.00 | 0.00 | 0.00 | 71 | 989.1 | |
| 20260507023016 | 78 | 0.0 | 3.0 | 0.00 | 0.00 | 0.00 | 70 | 989.1 | |
| 20260507022016 | 78 | 0.0 | 3.0 | 0.00 | 0.00 | 0.00 | 70 | 988.8 | |
| 20260507021016 | 78 | 0.0 | 0.0 | 0.00 | 0.00 | 0.00 | 69 | 988.6 | |
| 20260507020016 | 78 | 0.0 | 5.0 | 0.00 | 0.00 | 0.00 | 69 | 988.6 | |
| 20260507015036 | 78 | 0.0 | 3.0 | 0.00 | 0.00 | 0.00 | 67 | 988.5 | |
| 20260507014016 | 79 | 0.0 | 5.0 | 0.00 | 0.00 | 0.00 | 66 | 988.5 | |
| 20260507013016 | 79 | 0.0 | 0.0 | 0.00 | 0.00 | 0.00 | 65 | 988.5 | |
| 20260507012016 | 79 | 0.0 | 4.0 | 0.00 | 0.00 | 0.00 | 64 | 988.3 | |
| 20260507011016 | 79 | 0.0 | 1.0 | 0.00 | 0.00 | 0.00 | 63 | 988.1 | |
| 20260507010016 | 80 | 0.0 | 5.0 | 0.00 | 0.00 | 0.00 | 62 | 988.1 | |
| 20260507005016 | 80 | 0.0 | 5.0 | 0.00 | 0.00 | 0.00 | 61 | 988.0 | |
| 20260507004016 | 80 | 0.0 | 1.0 | 0.00 | 0.00 | 0.00 | 60 | 988.0 | |
| 20260507003016 | 80 | 0.0 | 5.0 | 0.00 | 0.00 | 0.00 | 59 | 988.0 | |
| 20260507002016 | 81 | 0.0 | 0.0 | 0.00 | 0.00 | 0.00 | 58 | 987.8 | |
| 20260507001055 | 81 | 0.0 | 2.0 | 0.00 | 0.00 | 0.00 | 57 | 987.6 | |
| 20260507000016 | 82 | 0.0 | 5.0 | 0.00 | 0.00 | 0.00 | 56 | 987.6 | |
| 20260506235016 | 82 | 315 | 1.0 | 8.0 | 0.00 | 0.00 | 0.00 | 56 | 987.5 |
| 20260506234015 | 82 | 315 | 2.0 | 9.0 | 0.00 | 0.00 | 0.00 | 55 | 987.1 |
| 20260506233016 | 83 | 315 | 1.0 | 11.0 | 0.00 | 0.00 | 0.00 | 54 | 987.1 |
| 20260506232016 | 83 | 315 | 1.0 | 6.0 | 0.00 | 0.00 | 0.00 | 53 | 987.0 |
| 20260506231017 | 84 | 315 | 1.0 | 10.0 | 0.00 | 0.00 | 0.00 | 52 | 986.9 |
| 20260506230017 | 84 | 315 | 1.0 | 11.0 | 0.00 | 0.00 | 0.00 | 51 | 986.9 |
| 20260506225017 | 84 | 315 | 1.0 | 7.0 | 0.00 | 0.00 | 0.00 | 49 | 986.8 |
| 20260506224017 | 85 | 315 | 1.0 | 6.0 | 0.00 | 0.00 | 0.00 | 48 | 986.5 |
| 20260506223017 | 85 | 315 | 1.0 | 7.0 | 0.00 | 0.00 | 0.00 | 48 | 986.5 |
| 20260506222017 | 86 | 315 | 3.0 | 13.0 | 0.00 | 0.00 | 0.00 | 47 | 986.4 |
| 20260506221017 | 86 | 315 | 2.0 | 12.0 | 0.00 | 0.00 | 0.00 | 46 | 986.3 |
| 20260506220017 | 86 | 315 | 2.0 | 11.0 | 0.00 | 0.00 | 0.00 | 45 | 986.3 |
| 20260506215017 | 87 | 315 | 3.0 | 15.0 | 0.00 | 0.00 | 0.00 | 44 | 986.0 |
| 20260506214037 | 87 | 315 | 3.0 | 14.0 | 0.00 | 0.00 | 0.00 | 44 | 985.9 |
| 20260506213017 | 88 | 338 | 3.0 | 14.0 | 0.00 | 0.00 | 0.00 | 44 | 985.9 |
| 20260506212017 | 88 | 315 | 5.0 | 13.0 | 0.00 | 0.00 | 0.00 | 46 | 985.5 |
| 20260506211037 | 88 | 0 | 4.0 | 13.0 | 0.00 | 0.00 | 0.00 | 46 | 985.5 |
| 20260506210017 | 88 | 0 | 4.0 | 18.0 | 0.00 | 0.00 | 0.00 | 44 | 985.5 |
| 20260506205017 | 89 | 338 | 6.0 | 17.0 | 0.00 | 0.00 | 0.00 | 44 | 985.6 |
| 20260506204017 | 89 | 338 | 5.0 | 21.0 | 0.00 | 0.00 | 0.00 | 44 | 985.5 |
| 20260506203037 | 89 | 0 | 5.0 | 14.0 | 0.00 | 0.00 | 0.00 | 44 | 985.5 |
| 20260506202017 | 90 | 338 | 5.0 | 14.0 | 0.00 | 0.00 | 0.00 | 45 | 985.5 |
| 20260506201017 | 89 | 0 | 2.0 | 14.0 | 0.00 | 0.00 | 0.00 | 46 | 985.6 |
| 20260506200017 | 90 | 338 | 4.0 | 15.0 | 0.00 | 0.00 | 0.00 | 43 | 985.6 |
| 20260506195017 | 91 | 315 | 4.0 | 14.0 | 0.00 | 0.00 | 0.00 | 44 | 985.6 |
| 20260506194017 | 90 | 315 | 5.0 | 14.0 | 0.00 | 0.00 | 0.00 | 44 | 985.9 |
| 20260506193017 | 90 | 0 | 6.0 | 15.0 | 0.00 | 0.00 | 0.00 | 46 | 985.9 |
| 20260506192037 | 90 | 315 | 6.0 | 15.0 | 0.00 | 0.00 | 0.00 | 43 | 985.8 |
| 20260506191016 | 90 | 315 | 6.0 | 17.0 | 0.00 | 0.00 | 0.00 | 43 | 985.9 |
| 20260506190036 | 90 | 315 | 6.0 | 17.0 | 0.00 | 0.00 | 0.00 | 43 | 985.9 |
| 20260506185017 | 90 | 315 | 6.0 | 13.0 | 0.00 | 0.00 | 0.00 | 45 | 985.9 |
| 20260506184016 | 90 | 338 | 4.0 | 17.0 | 0.00 | 0.00 | 0.00 | 46 | 986.1 |
| 20260506183016 | 90 | 338 | 5.0 | 13.0 | 0.00 | 0.00 | 0.00 | 44 | 986.1 |
| 20260506182016 | 91 | 315 | 5.0 | 22.0 | 0.00 | 0.00 | 0.00 | 40 | 986.2 |
| 20260506181016 | 90 | 315 | 5.0 | 14.0 | 0.00 | 0.00 | 0.00 | 44 | 986.5 |
| 20260506180016 | 90 | 0 | 6.0 | 20.0 | 0.00 | 0.00 | 0.00 | 45 | 986.5 |
| 20260506175016 | 90 | 315 | 4.0 | 15.0 | 0.00 | 0.00 | 0.00 | 45 | 986.6 |
| 20260506174016 | 90 | 0 | 4.0 | 20.0 | 0.00 | 0.00 | 0.00 | 46 | 987.0 |
| 20260506173016 | 90 | 0 | 4.0 | 15.0 | 0.00 | 0.00 | 0.00 | 44 | 987.0 |
| 20260506172016 | 89 | 0 | 4.0 | 12.0 | 0.00 | 0.00 | 0.00 | 47 | 987.2 |
| 20260506171017 | 89 | 338 | 5.0 | 14.0 | 0.00 | 0.00 | 0.00 | 46 | 987.5 |
| 20260506170056 | 89 | 0 | 5.0 | 17.0 | 0.00 | 0.00 | 0.00 | 48 | 987.5 |
| 20260506165056 | 88 | 315 | 2.0 | 10.0 | 0.00 | 0.00 | 0.00 | 48 | 987.7 |
| 20260506164016 | 88 | 0 | 6.0 | 15.0 | 0.00 | 0.00 | 0.00 | 47 | 987.9 |
| 20260506163016 | 89 | 338 | 3.0 | 14.0 | 0.00 | 0.00 | 0.00 | 49 | 987.9 |
| 20260506162016 | 88 | 0 | 5.0 | 17.0 | 0.00 | 0.00 | 0.00 | 48 | 988.1 |
| 20260506161016 | 87 | 0 | 4.0 | 14.0 | 0.00 | 0.00 | 0.00 | 52 | 988.5 |
| 20260506160016 | 86 | 0 | 6.0 | 16.0 | 0.00 | 0.00 | 0.00 | 53 | 988.5 |
| 20260506155016 | 85 | 0 | 5.0 | 13.0 | 0.00 | 0.00 | 0.00 | 57 | 988.6 |
| 20260506154016 | 86 | 0 | 5.0 | 15.0 | 0.00 | 0.00 | 0.00 | 55 | 988.6 |
| 20260506153016 | 86 | 0 | 5.0 | 13.0 | 0.00 | 0.00 | 0.00 | 55 | 988.6 |
| 20260506152015 | 85 | 0 | 4.0 | 13.0 | 0.00 | 0.00 | 0.00 | 56 | 988.8 |
| 20260506151016 | 85 | 0 | 5.0 | 14.0 | 0.00 | 0.00 | 0.00 | 56 | 988.9 |
| 20260506150016 | 85 | 0 | 5.0 | 11.0 | 0.00 | 0.00 | 0.00 | 55 | 988.9 |
| 20260506145015 | 85 | 0 | 2.0 | 7.0 | 0.00 | 0.00 | 0.00 | 55 | 989.1 |
| 20260506144017 | 84 | 0 | 6.0 | 14.0 | 0.00 | 0.00 | 0.00 | 55 | 989.3 |
| 20260506143037 | 85 | 0 | 5.0 | 13.0 | 0.00 | 0.00 | 0.00 | 54 | 989.3 |
| 20260506142017 | 84 | 315 | 3.0 | 13.0 | 0.00 | 0.00 | 0.00 | 54 | 989.4 |
| 20260506141017 | 84 | 0 | 2.0 | 10.0 | 0.00 | 0.00 | 0.00 | 54 | 989.3 |
| 20260506140038 | 84 | 0 | 2.0 | 10.0 | 0.00 | 0.00 | 0.00 | 56 | 989.3 |
| 20260506135017 | 84 | 0 | 1.0 | 6.0 | 0.00 | 0.00 | 0.00 | 57 | 989.6 |
| 20260506134035 | 83 | 0 | 2.0 | 11.0 | 0.00 | 0.00 | 0.00 | 60 | 989.5 |
| 20260506133017 | 83 | 0 | 1.0 | 10.0 | 0.00 | 0.00 | 0.00 | 60 | 989.5 |
| 20260506131017 | 82 | 0 | 1.0 | 5.0 | 0.00 | 0.00 | 0.00 | 60 | 989.3 |
| 20260506130037 | 82 | 0 | 1.0 | 6.0 | 0.00 | 0.00 | 0.00 | 61 | 989.3 |
| 20260506125017 | 82 | 23 | 1.0 | 5.0 | 0.00 | 0.00 | 0.00 | 62 | 989.3 |